[[{"header":{"parameterUnit":"m.s-1","parameterCategory":2,"la1":30.2991,"la2":30.254,"lo1":-89.0895,"lo2":-89.0444,"dy":0.0017,"dx":0.0017,"nx":28,"ny":28,"refTime":"2025-05-27T09:00:00:Z","depth":"0","parameterNumber":2,"parameterNumberName":"U-component_of_CURRENTS"},"data":[0,0,0,0,0,0,0,0,0,0,0,0,0,0,0,0,0,0,0,0,0,0,0,0,0,0,0,0,0,0,0,0,0,0,0,0,0,0,0,0,0,0,0,0,0,0,0,0,0,0,0,0,0,0,0,0,0,0,0.2068,0.2068,0,0.207,0.207,0.207,0.2042,0.2042,0.2041,0.2041,0.2027,0.2027,0.2027,0,0,0,0,0,0,0,0,0,0,0,0,0,0.203,0.203,0.2068,0.2068,0.2068,0.207,0.207,0.207,0.2042,0.2042,0.2041,0.2041,0.2027,0.2027,0.2027,0,0,0,0,0,0,0,0,0,0,0,0,0,0.2038,0.2031,0.2068,0.2057,0.2056,0.207,0.207,0.207,0.2043,0.2042,0.2041,0.204,0.2027,0.2027,0.2027,0.2042,0,0,0.2027,0.2027,0,0,0,0,0,0,0,0,0.2037,0.2039,0.2058,0.2058,0.2057,0.2058,0.2051,0.2061,0.2043,0.2045,0.2041,0.204,0.2038,0.2037,0.2035,0.2041,0.2041,0.2027,0.2027,0.2027,0.2027,0,0,0,0,0,0,0,0.2037,0.2039,0.2066,0.2059,0.2058,0.2049,0.2049,0.2053,0.2043,0.2045,0.2043,0.2048,0.2037,0.2035,0.2035,0.2041,0.2027,0.2027,0.2027,0.2027,0.2071,0.2072,0,0,0,0,0,0,0.2044,0.2038,0.2066,0.2066,0.2049,0.2051,0.205,0.2056,0.2043,0.2042,0.2049,0.2047,0.2035,0.2035,0.2034,0.2066,0.2027,0.2027,0.2027,0.207,0.2072,0.2073,0,0,0,0,0,0,0.2043,0.2046,0.2066,0.2054,0.2056,0.2052,0.2058,0.2056,0.2056,0.2047,0.2044,0.2051,0.2035,0.2034,0.2042,0.2064,0.2027,0.2028,0.2069,0.2071,0.2072,0.212,0,0,0,0,0,0,0.2042,0.2046,0.2052,0.2055,0.2058,0.208,0.2059,0.2057,0.2062,0.2059,0.2049,0.2046,0.2034,0.2042,0.2042,0.2064,0.2028,0.2067,0.207,0.2072,0.2117,0.2123,0.2128,0,0,0,0,0,0.2041,0.2051,0.2052,0.2056,0.2066,0.2081,0.2081,0.2073,0.2063,0.2069,0.2061,0.2047,0.2055,0.2043,0.2043,0.2065,0.2066,0.2069,0.2071,0.2114,0.2122,0.2128,0,0,0,0,0,0,0.2036,0.205,0.2051,0.2065,0.2076,0.2077,0.2084,0.2079,0.2078,0.2074,0.2059,0.2057,0.2072,0.2064,0.2051,0.2085,0.206,0.2062,0.2093,0.2099,0.2105,0.2173,0.2028,0,0,0,0,0,0.2041,0.2051,0.2065,0.2076,0.2085,0.2086,0.2091,0.2088,0.2089,0.2087,0.2081,0.2078,0.2084,0.2087,0.2087,0.2107,0.2212,0.2122,0.2128,0.2132,0.2188,0.2407,0.244,0.2081,0.2081,0.2081,0,0,0.2041,0.2052,0.2056,0.2076,0.2083,0.2095,0.2086,0.21,0.2111,0.2087,0.2099,0.2097,0.2093,0.2112,0.2119,0.2107,0.2278,0.2135,0.214,0.2194,0.2414,0.245,0.2482,0.2083,0.2082,0.2082,0,0,0.2045,0.206,0.2068,0.2081,0.21,0.2107,0.2114,0.2123,0.213,0.214,0.2133,0.2163,0.2143,0.2173,0.2177,0.2222,0.23,0.2198,0.2285,0.2495,0.2529,0.256,0.27,0.2743,0.2203,0.2203,0.2203,0,0.2043,0.2061,0.2074,0.2086,0.2105,0.2113,0.2132,0.214,0.215,0.2188,0.2146,0.2214,0.2187,0.2272,0.227,0.224,0.2361,0.2254,0.2511,0.2544,0.2575,0.2711,0.2759,0.2205,0.2205,0.2205,0.2205,0,0.2049,0.2069,0.2079,0.2099,0.212,0.2142,0.2163,0.2193,0.2198,0.2222,0.2305,0.2304,0.2369,0.234,0.2305,0.2495,0.2506,0.2495,0.2506,0.2616,0.2749,0.2798,0.2209,0.2208,0.2207,0.2207,0,0,0.2037,0.2076,0.2077,0.2116,0.2136,0.2169,0.22,0.2266,0.2348,0.2352,0.2484,0.2468,0.2518,0.2532,0.2526,0.2673,0.2937,0.2678,0.2688,0.2838,0.3395,0.3309,0.3353,0.2997,0.3007,0.3014,0.3387,0,0.2042,0.2083,0.2091,0.2147,0.219,0.2222,0.227,0.2333,0.2393,0.2521,0.2574,0.2678,0.2577,0.2646,0.2777,0.2911,0.3076,0.2836,0.325,0.3262,0.3193,0.3411,0.3284,0.3601,0.3435,0.3443,0.3449,0,0.2048,0.2089,0.2146,0.2237,0.2258,0.229,0.2435,0.2481,0.2639,0.27,0.2829,0.289,0.3075,0.2996,0.3331,0.3195,0.3319,0.3409,0.3426,0.3382,0.327,0.3472,0.3696,0.3575,0.3524,0.3518,0.3513,0,0.2096,0.2132,0.2197,0.2221,0.2313,0.2368,0.2418,0.255,0.2657,0.2867,0.2996,0.3187,0.3332,0.3538,0.364,0.3559,0.4027,0.3941,0.3983,0.3975,0.3968,0.3944,0.4154,0.4258,0.4258,0.4257,0.4255,0,0.2144,0.2209,0.223,0.2295,0.2408,0.2431,0.2596,0.268,0.2854,0.3001,0.3121,0.3293,0.3496,0.3722,0.381,0.4045,0.4179,0.4087,0.4116,0.3967,0.3939,0.3908,0.3797,0.427,0.4267,0.4265,0.4262,0,0.2266,0.2255,0.2365,0.2435,0.2459,0.2563,0.2702,0.2805,0.2962,0.3179,0.3267,0.3493,0.3761,0.3927,0.4265,0.4268,0.4377,0.4529,0.4289,0.4282,0.4156,0.405,0.4191,0.4059,0.4696,0.4697,0.4698,0,0.2366,0.2416,0.2494,0.2527,0.2575,0.2692,0.2751,0.2877,0.297,0.3262,0.3359,0.3685,0.3833,0.4271,0.4404,0.4633,0.4447,0.4623,0.4437,0.4218,0.4125,0.3904,0.3764,0.444,0.4439,0.4438,0.4437,0,0.2559,0.2559,0.2618,0.2664,0.2714,0.2788,0.2863,0.2958,0.3081,0.3249,0.3424,0.3582,0.3976,0.4154,0.445,0.4546,0.4375,0.4602,0.4508,0.4082,0.3739,0.3598,0.4059,0.4426,0.4427,0.4428,0.4429,0.4429,0.2681,0.272,0.2705,0.2754,0.279,0.2779,0.2805,0.2866,0.2981,0.3127,0.3339,0.3524,0.3894,0.4284,0.4352,0.4404,0.4318,0.4324,0.4262,0.4095,0.3824,0.4211,0.45,0.4501,0.4502,0.4504,0.4505,0,0.2715,0.2697,0.2761,0.2736,0.2714,0.2739,0.2775,0.275,0.2779,0.2993,0.3122,0.3487,0.3733,0.4,0.4207,0.4096,0.39,0.3998,0.3692,0.3604,0.4127,0.3965,0.399,0.399,0.399,0.399,0.399,0.399,0.2715,0.2691,0.2677,0.2598,0.2578,0.249,0.2464,0.2466,0.2575,0.2726,0.2917,0.3152,0.3586,0.3941,0.3934,0.3837,0.3494,0.3381,0.3317,0.3695,0.3719,0.3741,0.3569,0.3509,0.3509,0.2677,0.267,0.2666]},{"header":{"parameterUnit":"m.s-1","parameterCategory":2,"la1":30.2991,"la2":30.254,"lo1":-89.0895,"lo2":-89.0444,"dy":0.0017,"dx":0.0017,"nx":28,"ny":28,"refTime":"2025-05-27T09:00:00:Z","depth":"0","parameterNumber":3,"parameterNumberName":"V-component_of_CURRENTS"},"data":[0,0,0,0,0,0,0,0,0,0,0,0,0,0,0,0,0,0,0,0,0,0,0,0,0,0,0,0,0,0,0,0,0,0,0,0,0,0,0,0,0,0,0,0,0,0,0,0,0,0,0,0,0,0,0,0,0,0,-0.0295,-0.0296,0,-0.0395,-0.0396,-0.0397,-0.0451,-0.0451,-0.0452,-0.0452,-0.0575,-0.0578,-0.0581,0,0,0,0,0,0,0,0,0,0,0,0,0,-0.0186,-0.0187,-0.0295,-0.0296,-0.0298,-0.0395,-0.0396,-0.0397,-0.0451,-0.0451,-0.0452,-0.0452,-0.0574,-0.0578,-0.0581,0,0,0,0,0,0,0,0,0,0,0,0,0,-0.0253,-0.0188,-0.0295,-0.0337,-0.0342,-0.0394,-0.0396,-0.0398,-0.0451,-0.0451,-0.0452,-0.0452,-0.0573,-0.0577,-0.0582,-0.0605,0,0,-0.0596,-0.0598,0,0,0,0,0,0,0,0,-0.0249,-0.0257,-0.0329,-0.0334,-0.034,-0.0412,-0.0403,-0.0468,-0.0451,-0.0409,-0.0452,-0.0452,-0.0523,-0.0532,-0.0548,-0.061,-0.0616,-0.0597,-0.0599,-0.0601,-0.0603,0,0,0,0,0,0,0,-0.0245,-0.0253,-0.0334,-0.0331,-0.0337,-0.0363,-0.0372,-0.0415,-0.0463,-0.0412,-0.0417,-0.0429,-0.0526,-0.0544,-0.0552,-0.0617,-0.0596,-0.0601,-0.0603,-0.0605,-0.0698,-0.0697,0,0,0,0,0,0,-0.0232,-0.0249,-0.0331,-0.0337,-0.0295,-0.0364,-0.0375,-0.0388,-0.0462,-0.0474,-0.0429,-0.0431,-0.0536,-0.0546,-0.0556,-0.0555,-0.0601,-0.0606,-0.0608,-0.0698,-0.0698,-0.0697,0,0,0,0,0,0,-0.0229,-0.0238,-0.0327,-0.0296,-0.0309,-0.0366,-0.038,-0.0389,-0.0406,-0.0474,-0.0486,-0.0435,-0.0536,-0.055,-0.0589,-0.0562,-0.0608,-0.0612,-0.0698,-0.0698,-0.0697,-0.0574,0,0,0,0,0,0,-0.0226,-0.0237,-0.0239,-0.0295,-0.031,-0.0351,-0.038,-0.0391,-0.0414,-0.0418,-0.0484,-0.0496,-0.0537,-0.0581,-0.0593,-0.0569,-0.0616,-0.0699,-0.0698,-0.0698,-0.0579,-0.057,-0.0562,0,0,0,0,0,-0.0221,-0.0226,-0.0238,-0.0248,-0.0312,-0.0351,-0.0361,-0.0402,-0.0413,-0.0418,-0.046,-0.0494,-0.0586,-0.0585,-0.0599,-0.0575,-0.0699,-0.0698,-0.0698,-0.0583,-0.0571,-0.0562,0,0,0,0,0,0,-0.018,-0.0233,-0.0248,-0.0268,-0.0302,-0.036,-0.0371,-0.0395,-0.0432,-0.0436,-0.0494,-0.0509,-0.0534,-0.0577,-0.0575,-0.0603,-0.0646,-0.0648,-0.0554,-0.0544,-0.0536,-0.0427,-0.0619,0,0,0,0,0,-0.0171,-0.0189,-0.0238,-0.0253,-0.0267,-0.0315,-0.0335,-0.0361,-0.0403,-0.042,-0.0465,-0.051,-0.0543,-0.056,-0.0607,-0.0621,-0.0575,-0.0616,-0.0608,-0.06,-0.0523,-0.0405,-0.0376,-0.0695,-0.0695,-0.0695,0,0,-0.016,-0.0191,-0.0201,-0.0245,-0.0274,-0.0284,-0.0327,-0.0353,-0.035,-0.0428,-0.044,-0.0489,-0.0544,-0.056,-0.0574,-0.0589,-0.0502,-0.0599,-0.0591,-0.0517,-0.0401,-0.0368,-0.034,-0.0694,-0.0694,-0.0695,0,0,-0.0142,-0.0171,-0.0175,-0.0198,-0.0238,-0.0264,-0.0266,-0.0317,-0.0326,-0.0354,-0.0396,-0.0401,-0.0492,-0.0484,-0.0501,-0.047,-0.0467,-0.0521,-0.0377,-0.0266,-0.0236,-0.0209,-0.0164,-0.0134,-0.0507,-0.0507,-0.0507,0,-0.0123,-0.0126,-0.0181,-0.0187,-0.0179,-0.0246,-0.0224,-0.0256,-0.0311,-0.0266,-0.0347,-0.0351,-0.0432,-0.0357,-0.037,-0.0439,-0.0397,-0.0411,-0.0245,-0.0217,-0.0191,-0.0151,-0.0119,-0.0501,-0.0502,-0.0502,-0.0503,0,-0.0106,-0.0101,-0.0103,-0.0121,-0.0128,-0.0122,-0.0159,-0.0151,-0.0177,-0.0178,-0.0123,-0.0204,-0.0168,-0.0234,-0.0307,-0.0165,-0.0206,-0.025,-0.025,-0.0149,-0.0118,-0.0087,-0.0493,-0.0495,-0.0496,-0.0498,0,0,-0.006,-0.0081,-0.0077,-0.0022,-0.0075,-0.0047,-0.0042,0.0011,0.0119,0.0035,0.0191,0.0086,0.0099,0.0085,0.0016,0.0077,0.022,-0.0006,-0.0003,0.0076,0.0443,0.0332,0.0354,0.0217,0.0224,0.023,0.0373,0,-0.0009,0.0043,-0.0002,0.0085,0.014,0.011,0.0161,0.0198,0.0221,0.0341,0.031,0.0392,0.0202,0.0255,0.0286,0.0255,0.0319,0.0184,0.0304,0.0308,0.0231,0.0394,0.0291,0.0406,0.0404,0.0409,0.0413,0,0.0054,0.0092,0.019,0.0301,0.0325,0.0364,0.0539,0.0568,0.068,0.0713,0.0791,0.0766,0.0837,0.0666,0.0721,0.0647,0.0578,0.0527,0.0531,0.0434,0.0261,0.0312,0.0464,0.0186,0.0461,0.0457,0.0454,0,0.0223,0.0259,0.0376,0.0395,0.0469,0.056,0.0613,0.0721,0.0839,0.0996,0.1122,0.1165,0.1237,0.1184,0.0986,0.0907,0.1041,0.0921,0.0765,0.0751,0.0698,0.067,0.0645,0.1028,0.1027,0.1027,0.1027,0,0.0356,0.0469,0.0482,0.0567,0.0761,0.075,0.0991,0.1053,0.1213,0.1406,0.1358,0.1529,0.1381,0.1381,0.1179,0.1068,0.1199,0.087,0.0829,0.0721,0.0695,0.0473,0.0325,0.1032,0.1031,0.103,0.1029,0,0.0583,0.0565,0.0729,0.0817,0.086,0.1023,0.1196,0.1369,0.1485,0.1747,0.1815,0.1878,0.1862,0.1653,0.1574,0.1341,0.107,0.1138,0.0973,0.0911,0.0487,0.0349,0.0381,0.0284,0.1055,0.1054,0.1053,0,0.0731,0.0821,0.0936,0.1024,0.1081,0.1273,0.1404,0.1516,0.1681,0.195,0.2095,0.2171,0.2222,0.203,0.1619,0.1316,0.1066,0.104,0.0874,0.0528,0.0347,0.0251,0.0161,0.0823,0.082,0.0818,0.0816,0,0.1003,0.1019,0.1119,0.128,0.1418,0.159,0.177,0.193,0.2075,0.2277,0.2514,0.2597,0.2379,0.2039,0.1585,0.1332,0.0825,0.0983,0.0721,0.0281,0.0096,-0.0044,0.06,0.0796,0.0798,0.0799,0.08,0.0801,0.1191,0.1294,0.1363,0.1533,0.1671,0.185,0.201,0.2175,0.2419,0.2677,0.2766,0.2911,0.2396,0.1759,0.1388,0.0597,0.067,0.0355,0.0253,0.0216,0.0033,0.0597,0.067,0.0671,0.0672,0.0673,0.0674,0,0.1372,0.1433,0.1602,0.1762,0.1923,0.1957,0.2202,0.2338,0.2575,0.2825,0.3006,0.2831,0.2168,0.1505,0.044,-0.0057,-0.0219,-0.0313,-0.0475,-0.0503,0.0086,-0.0025,-0.0215,-0.0214,-0.0214,-0.0214,-0.0214,-0.0213,0.1454,0.1596,0.1659,0.1916,0.2033,0.2233,0.2354,0.2548,0.2748,0.2972,0.3062,0.3111,0.2521,0.0731,-0.048,-0.0711,-0.1036,-0.1128,-0.1206,-0.0884,-0.0831,-0.0781,-0.092,-0.1294,-0.1296,-0.1785,-0.179,-0.1795]}],[{"header":{"parameterUnit":"m.s-1","parameterCategory":2,"la1":30.2991,"la2":30.254,"lo1":-89.0895,"lo2":-89.0444,"dy":0.0017,"dx":0.0017,"nx":28,"ny":28,"refTime":"2025-05-27T09:00:00:Z","depth":"2","parameterNumber":2,"parameterNumberName":"U-component_of_CURRENTS"},"data":[0,0,0,0,0,0,0,0,0,0,0,0,0,0,0,0,0,0,0,0,0,0,0,0,0,0,0,0,0,0,0,0,0,0,0,0,0,0,0,0,0,0,0,0,0,0,0,0,0,0,0,0,0,0,0,0,0,0,0.2262,0.2264,0,0.2374,0.2375,0.2376,0.241,0.2409,0.2409,0.2409,0.2401,0.2401,0.2401,0,0,0,0,0,0,0,0,0,0,0,0,0,0.2133,0.2135,0.2262,0.2264,0.2265,0.2374,0.2375,0.2377,0.241,0.2409,0.2409,0.2408,0.2401,0.2401,0.2401,0,0,0,0,0,0,0,0,0,0,0,0,0,0.221,0.2136,0.2262,0.2296,0.2301,0.2374,0.2375,0.2377,0.241,0.2409,0.2409,0.2408,0.2401,0.2401,0.2401,0.2415,0,0,0.2402,0.2402,0,0,0,0,0,0,0,0,0.2205,0.2214,0.229,0.2294,0.2299,0.2379,0.2327,0.2384,0.241,0.2366,0.2409,0.2408,0.2384,0.2386,0.2407,0.2414,0.2414,0.2402,0.2402,0.2402,0.2402,0,0,0,0,0,0,0,0.22,0.221,0.2304,0.2291,0.2297,0.2326,0.2335,0.2339,0.2373,0.237,0.2373,0.2389,0.2386,0.2407,0.2407,0.2414,0.2402,0.2402,0.2403,0.2403,0.2419,0.2419,0,0,0,0,0,0,0.2188,0.2205,0.2301,0.2308,0.2252,0.2328,0.2339,0.2352,0.2376,0.2381,0.239,0.239,0.2407,0.2407,0.2407,0.2401,0.2402,0.2403,0.2403,0.2419,0.2419,0.2419,0,0,0,0,0,0,0.2185,0.2195,0.2296,0.226,0.2275,0.2331,0.2346,0.2355,0.2376,0.2393,0.2394,0.2401,0.2406,0.2406,0.2414,0.2401,0.2403,0.2403,0.2418,0.2419,0.2419,0.2403,0,0,0,0,0,0,0.218,0.2193,0.2209,0.226,0.2277,0.2342,0.2347,0.2358,0.2388,0.239,0.2403,0.2402,0.2406,0.2414,0.2414,0.2401,0.2403,0.2418,0.2419,0.2419,0.2403,0.2402,0.2402,0,0,0,0,0,0.2175,0.2194,0.2209,0.2221,0.2293,0.2342,0.2354,0.239,0.2388,0.2404,0.2411,0.2402,0.2417,0.2415,0.2415,0.2402,0.2418,0.2418,0.2419,0.2403,0.2403,0.2402,0,0,0,0,0,0,0.2143,0.2201,0.2218,0.2253,0.2296,0.2349,0.2374,0.239,0.2412,0.2406,0.2411,0.2412,0.2415,0.2415,0.2412,0.241,0.2414,0.2414,0.2401,0.2401,0.24,0.2449,0.2403,0,0,0,0,0,0.2144,0.2172,0.2229,0.2254,0.2279,0.2324,0.2351,0.2371,0.2396,0.2406,0.2409,0.2413,0.242,0.2415,0.2426,0.2423,0.248,0.2415,0.2414,0.2414,0.2455,0.2569,0.2584,0.2422,0.2422,0.2422,0,0,0.2135,0.2173,0.2187,0.225,0.2286,0.2315,0.2338,0.2375,0.2387,0.2398,0.2406,0.2415,0.2423,0.2426,0.2425,0.242,0.2475,0.2415,0.2414,0.2457,0.2572,0.2588,0.2602,0.2422,0.2422,0.2422,0,0,0.2128,0.2168,0.219,0.2227,0.2284,0.2313,0.232,0.2367,0.2381,0.2393,0.2404,0.2422,0.2413,0.2434,0.2437,0.2445,0.2477,0.2423,0.2451,0.2559,0.2575,0.2589,0.2622,0.264,0.2413,0.2413,0.2413,0,0.2115,0.2155,0.2203,0.2234,0.2264,0.2305,0.233,0.235,0.2386,0.2416,0.2388,0.2442,0.2426,0.2472,0.2461,0.2445,0.2497,0.2445,0.2562,0.2578,0.2594,0.2625,0.2645,0.2412,0.2413,0.2413,0.2413,0,0.2127,0.2161,0.2177,0.2226,0.2261,0.2291,0.2329,0.2355,0.2364,0.2399,0.2449,0.2453,0.2506,0.2471,0.2459,0.2547,0.2541,0.2556,0.2568,0.261,0.2638,0.2659,0.2411,0.2412,0.2412,0.2412,0,0,0.2092,0.2172,0.2174,0.2212,0.2264,0.23,0.232,0.2385,0.2441,0.2447,0.2541,0.2515,0.2561,0.2573,0.2568,0.2626,0.2724,0.263,0.2636,0.267,0.2929,0.2831,0.2844,0.2773,0.2778,0.2782,0.2883,0,0.209,0.2147,0.2178,0.2226,0.227,0.2314,0.2347,0.2404,0.2454,0.2553,0.2585,0.2659,0.2586,0.2629,0.268,0.2749,0.2791,0.2693,0.288,0.2885,0.2801,0.2871,0.2648,0.2716,0.2905,0.2908,0.2911,0,0.2101,0.2141,0.2191,0.2276,0.2298,0.2325,0.2432,0.2469,0.2599,0.265,0.2742,0.2796,0.2886,0.283,0.296,0.291,0.2924,0.2944,0.295,0.2898,0.283,0.2717,0.2748,0.2947,0.2944,0.2941,0.2939,0,0.2098,0.2159,0.2206,0.223,0.2316,0.2352,0.2401,0.2509,0.2587,0.275,0.2849,0.2958,0.3045,0.3112,0.311,0.3076,0.3255,0.3221,0.3131,0.3121,0.2992,0.2962,0.333,0.333,0.3329,0.3329,0.3329,0,0.2112,0.215,0.2215,0.2245,0.2325,0.2373,0.2487,0.2556,0.2705,0.2815,0.2919,0.3029,0.3132,0.3222,0.3208,0.3231,0.3336,0.3172,0.3172,0.2967,0.2936,0.3195,0.3178,0.3333,0.3332,0.3331,0.3331,0,0.2115,0.2158,0.2222,0.2299,0.2337,0.2396,0.2537,0.2608,0.2752,0.2914,0.2977,0.3147,0.3252,0.33,0.3411,0.3347,0.338,0.3344,0.3053,0.3017,0.3143,0.3124,0.3304,0.3302,0.33,0.3299,0.3298,0,0.2133,0.2163,0.2253,0.2284,0.232,0.242,0.248,0.2627,0.2695,0.2948,0.3007,0.3195,0.3253,0.3375,0.3329,0.3316,0.3361,0.3089,0.2987,0.3175,0.3157,0.314,0.3123,0.2778,0.2773,0.2769,0.2765,0,0.213,0.2153,0.2175,0.2244,0.2305,0.2404,0.2492,0.2567,0.2721,0.2864,0.3013,0.3101,0.3212,0.3123,0.3111,0.3059,0.3082,0.3,0.3347,0.2809,0.2686,0.2665,0.2666,0.2727,0.2731,0.2733,0.2736,0.2737,0.2081,0.2092,0.2098,0.2165,0.2239,0.2311,0.2364,0.2445,0.2565,0.2652,0.2802,0.2826,0.2895,0.2759,0.2704,0.2686,0.2868,0.275,0.2762,0.2779,0.2689,0.2571,0.2568,0.2571,0.2574,0.2576,0.2578,0,0.1971,0.1984,0.2017,0.2068,0.2102,0.221,0.23,0.2305,0.2372,0.2425,0.2468,0.2261,0.2234,0.2335,0.2256,0.2267,0.2219,0.2191,0.2125,0.2167,0.2203,0.2081,0.1801,0.1798,0.1795,0.1793,0,0,0.1892,0.1852,0.1877,0.1893,0.1964,0.1997,0.2043,0.2062,0.2087,0.1983,0.1945,0.1987,0.2217,0.1922,0.194,0.1878,0.1988,0.1803,0.2433,0.2396,0.2427,0.2545,0.2407,0,0,0,0,0]},{"header":{"parameterUnit":"m.s-1","parameterCategory":2,"la1":30.2991,"la2":30.254,"lo1":-89.0895,"lo2":-89.0444,"dy":0.0017,"dx":0.0017,"nx":28,"ny":28,"refTime":"2025-05-27T09:00:00:Z","depth":"2","parameterNumber":3,"parameterNumberName":"V-component_of_CURRENTS"},"data":[0,0,0,0,0,0,0,0,0,0,0,0,0,0,0,0,0,0,0,0,0,0,0,0,0,0,0,0,0,0,0,0,0,0,0,0,0,0,0,0,0,0,0,0,0,0,0,0,0,0,0,0,0,0,0,0,0,0,-0.0506,-0.0507,0,-0.0632,-0.0633,-0.0635,-0.0735,-0.0736,-0.0736,-0.0737,-0.0843,-0.0845,-0.0847,0,0,0,0,0,0,0,0,0,0,0,0,0,-0.0465,-0.0465,-0.0506,-0.0507,-0.0508,-0.0631,-0.0633,-0.0636,-0.0735,-0.0736,-0.0737,-0.0737,-0.0842,-0.0844,-0.0847,0,0,0,0,0,0,0,0,0,0,0,0,0,-0.0529,-0.0465,-0.0506,-0.057,-0.0577,-0.0631,-0.0634,-0.0636,-0.0735,-0.0736,-0.0737,-0.0738,-0.0841,-0.0844,-0.0847,-0.0848,0,0,-0.0857,-0.0859,0,0,0,0,0,0,0,0,-0.0525,-0.0531,-0.0559,-0.0566,-0.0573,-0.0666,-0.0658,-0.0705,-0.0735,-0.0679,-0.0737,-0.0738,-0.0778,-0.0787,-0.0814,-0.0853,-0.0857,-0.0858,-0.086,-0.0861,-0.0862,0,0,0,0,0,0,0,-0.0521,-0.0527,-0.0559,-0.056,-0.0569,-0.0631,-0.0641,-0.0668,-0.0724,-0.0684,-0.069,-0.0698,-0.0783,-0.081,-0.0817,-0.0859,-0.0858,-0.0861,-0.0863,-0.0864,-0.0957,-0.0958,0,0,0,0,0,0,-0.049,-0.0522,-0.0555,-0.0563,-0.0547,-0.063,-0.0642,-0.0638,-0.0724,-0.0738,-0.0697,-0.0702,-0.0804,-0.0813,-0.0821,-0.0829,-0.0861,-0.0864,-0.0866,-0.0957,-0.0957,-0.0958,0,0,0,0,0,0,-0.0489,-0.0492,-0.055,-0.0543,-0.0555,-0.0629,-0.0625,-0.064,-0.0687,-0.0734,-0.0748,-0.073,-0.0806,-0.0816,-0.0855,-0.0834,-0.0866,-0.0869,-0.0956,-0.0957,-0.0958,-0.0844,0,0,0,0,0,0,-0.0487,-0.049,-0.0505,-0.054,-0.0554,-0.0591,-0.0624,-0.0641,-0.0687,-0.0696,-0.0766,-0.0777,-0.0807,-0.085,-0.0858,-0.0839,-0.0871,-0.0956,-0.0957,-0.0957,-0.0847,-0.084,-0.0835,0,0,0,0,0,-0.0485,-0.0493,-0.0504,-0.051,-0.0562,-0.0591,-0.0604,-0.0664,-0.0687,-0.071,-0.0752,-0.0775,-0.0862,-0.0853,-0.0863,-0.0843,-0.0955,-0.0956,-0.0957,-0.0849,-0.0842,-0.0835,0,0,0,0,0,0,-0.049,-0.0505,-0.0518,-0.0533,-0.0561,-0.0606,-0.0638,-0.0667,-0.0721,-0.0732,-0.0778,-0.0791,-0.0825,-0.0856,-0.0844,-0.0879,-0.0914,-0.0917,-0.0829,-0.0822,-0.0816,-0.0744,-0.0874,0,0,0,0,0,-0.0491,-0.0497,-0.0521,-0.0534,-0.0546,-0.0592,-0.0621,-0.065,-0.0688,-0.0716,-0.0756,-0.0801,-0.0835,-0.0845,-0.0894,-0.0897,-0.0938,-0.0898,-0.0892,-0.0886,-0.0838,-0.0876,-0.0867,-0.0962,-0.0962,-0.0962,0,0,-0.0493,-0.0504,-0.0509,-0.0536,-0.0564,-0.0572,-0.0614,-0.0646,-0.0648,-0.0714,-0.0742,-0.0792,-0.0841,-0.0856,-0.0872,-0.0874,-0.0897,-0.0888,-0.0881,-0.0836,-0.0875,-0.0866,-0.0857,-0.0963,-0.0962,-0.0962,0,0,-0.0487,-0.0509,-0.051,-0.0528,-0.056,-0.0578,-0.0584,-0.0626,-0.0646,-0.067,-0.0719,-0.0741,-0.0806,-0.0813,-0.0828,-0.0816,-0.088,-0.0853,-0.0737,-0.0775,-0.0766,-0.0758,-0.0857,-0.0858,-0.0829,-0.0829,-0.0829,0,-0.0494,-0.0482,-0.0519,-0.0522,-0.0516,-0.0572,-0.0553,-0.0587,-0.0635,-0.0611,-0.0669,-0.0723,-0.0771,-0.0747,-0.074,-0.0793,-0.0851,-0.0753,-0.0762,-0.0755,-0.0748,-0.0851,-0.0854,-0.0824,-0.0824,-0.0825,-0.0825,0,-0.0479,-0.0476,-0.0476,-0.048,-0.0487,-0.0483,-0.0504,-0.0517,-0.054,-0.0544,-0.0548,-0.0619,-0.0625,-0.0663,-0.0689,-0.0661,-0.0735,-0.0764,-0.0764,-0.0731,-0.0844,-0.0849,-0.0816,-0.0818,-0.0819,-0.0821,0,0,-0.0453,-0.046,-0.0457,-0.0426,-0.045,-0.0436,-0.043,-0.0397,-0.0362,-0.042,-0.0358,-0.0421,-0.0439,-0.0457,-0.0513,-0.0531,-0.0565,-0.0606,-0.0611,-0.0676,-0.0696,-0.0654,-0.0658,-0.0595,-0.0594,-0.0593,-0.0813,0,-0.0417,-0.038,-0.0397,-0.0343,-0.0308,-0.0329,-0.0308,-0.029,-0.0291,-0.0258,-0.0292,-0.0285,-0.037,-0.0368,-0.0397,-0.0513,-0.0564,-0.0505,-0.074,-0.0747,-0.0689,-0.0655,-0.059,-0.0768,-0.0818,-0.0819,-0.082,0,-0.0369,-0.0346,-0.0278,-0.0219,-0.0207,-0.0185,-0.0106,-0.0103,-0.0073,-0.0073,-0.0057,-0.0094,-0.0104,-0.0201,-0.0366,-0.0328,-0.0485,-0.06,-0.0612,-0.0594,-0.071,-0.0802,-0.0777,-0.083,-0.0829,-0.0828,-0.0827,0,-0.0274,-0.0238,-0.0161,-0.0149,-0.0121,-0.007,-0.0052,-0.0018,0.0003,0.0063,0.0074,0.0058,0.0002,-0.0128,-0.0354,-0.0354,-0.0576,-0.0618,-0.075,-0.0755,-0.0748,-0.0749,-0.0741,-0.0741,-0.0741,-0.074,-0.0739,0,-0.0201,-0.0146,-0.0104,-0.0069,0.0005,0.0027,0.0109,0.0109,0.0153,0.0177,0.0176,0.0152,0.0016,-0.0125,-0.0307,-0.0539,-0.0556,-0.0703,-0.0774,-0.0716,-0.0712,-0.0788,-0.0791,-0.0748,-0.0747,-0.0745,-0.0743,0,-0.0165,-0.011,-0.0047,0.0015,0.0046,0.0086,0.0146,0.0185,0.0225,0.0251,0.0275,0.0208,0.0049,-0.013,-0.0382,-0.0515,-0.0711,-0.0815,-0.0755,-0.0808,-0.0888,-0.0883,-0.0932,-0.0932,-0.0932,-0.0931,-0.0931,0,-0.0172,-0.012,-0.0035,-0.0001,0.0017,0.0095,0.0125,0.0196,0.0224,0.0249,0.0239,0.0155,0.01,-0.0223,-0.0441,-0.0696,-0.078,-0.0834,-0.0771,-0.0825,-0.0892,-0.0887,-0.0883,-0.0786,-0.0785,-0.0784,-0.0783,0,-0.0231,-0.0181,-0.0149,-0.0062,0.0,0.0058,0.0123,0.0178,0.0241,0.031,0.0327,0.0334,0.0057,-0.0109,-0.0427,-0.0613,-0.0741,-0.0814,-0.0897,-0.0703,-0.0691,-0.0756,-0.0756,-0.0772,-0.0773,-0.0774,-0.0775,-0.0775,-0.0316,-0.0309,-0.0221,-0.0143,-0.0072,0.0027,0.0123,0.0213,0.0335,0.0481,0.0406,0.0465,0.0206,-0.0092,-0.039,-0.0681,-0.07,-0.0784,-0.0787,-0.0791,-0.0689,-0.0671,-0.0737,-0.0738,-0.0739,-0.0739,-0.074,0,-0.039,-0.0341,-0.0302,-0.016,-0.0069,-0.001,0.0121,0.0268,0.0469,0.0574,0.0687,0.0524,0.0331,0.002,-0.0364,-0.061,-0.065,-0.0704,-0.0688,-0.0696,-0.0704,-0.0597,-0.0622,-0.0622,-0.0622,-0.0623,0,0,-0.0418,-0.0363,-0.0311,-0.0154,-0.0055,0.0118,0.023,0.0446,0.06,0.0795,0.0875,0.087,0.0482,0.0233,-0.0134,-0.0356,-0.0467,-0.0412,-0.0478,-0.0423,-0.0427,-0.0724,-0.0563,0,0,0,0,0]}],[{"header":{"parameterUnit":"m.s-1","parameterCategory":2,"la1":30.2991,"la2":30.254,"lo1":-89.0895,"lo2":-89.0444,"dy":0.0017,"dx":0.0017,"nx":28,"ny":28,"refTime":"2025-05-27T09:00:00:Z","depth":"4","parameterNumber":2,"parameterNumberName":"U-component_of_CURRENTS"},"data":[0,0,0,0,0,0,0,0,0,0,0,0,0,0,0,0,0,0,0,0,0,0,0,0,0,0,0,0,0,0,0,0,0,0,0,0,0,0,0,0,0,0,0,0,0,0,0,0,0,0,0,0,0,0,0,0,0,0,0.103,0.1031,0,0.1084,0.1085,0.1086,0.111,0.1109,0.1109,0.1109,0.1191,0.1193,0.1195,0,0,0,0,0,0,0,0,0,0,0,0,0,0.0909,0.0911,0.103,0.1031,0.1031,0.1084,0.1085,0.1086,0.111,0.1109,0.1109,0.1109,0.119,0.1193,0.1195,0,0,0,0,0,0,0,0,0,0,0,0,0,0.0963,0.0912,0.103,0.1048,0.1051,0.1084,0.1085,0.1086,0.111,0.1109,0.1109,0.1109,0.1189,0.1192,0.1196,0.1223,0,0,0.1207,0.1208,0,0,0,0,0,0,0,0,0.096,0.0968,0.1045,0.1047,0.105,0.1089,0.1072,0.1133,0.111,0.1089,0.1109,0.1109,0.1158,0.1164,0.1177,0.1227,0.1231,0.1207,0.1209,0.1211,0.1212,0,0,0,0,0,0,0,0.0957,0.0966,0.1053,0.1046,0.1048,0.1041,0.1049,0.1083,0.1126,0.1091,0.1092,0.1096,0.116,0.1173,0.1179,0.1232,0.1207,0.121,0.1212,0.1213,0.1363,0.1365,0,0,0,0,0,0,0.095,0.0963,0.1051,0.1054,0.1002,0.1043,0.1052,0.1078,0.1125,0.1132,0.1096,0.1097,0.1167,0.1175,0.1182,0.1268,0.1211,0.1214,0.1216,0.1362,0.1364,0.1366,0,0,0,0,0,0,0.0948,0.0958,0.1049,0.1007,0.1018,0.1046,0.1074,0.1079,0.111,0.1129,0.1136,0.1124,0.1167,0.1177,0.1232,0.1269,0.1215,0.1219,0.1359,0.1362,0.1365,0.1407,0,0,0,0,0,0,0.0944,0.0958,0.0982,0.1007,0.102,0.1074,0.1074,0.108,0.1111,0.1113,0.1155,0.1161,0.1168,0.1226,0.1235,0.1273,0.1221,0.1357,0.1361,0.1364,0.1403,0.1411,0.1417,0,0,0,0,0,0.094,0.0951,0.0983,0.0994,0.1051,0.1075,0.1081,0.1099,0.1112,0.1127,0.1163,0.116,0.1255,0.1231,0.1241,0.128,0.1355,0.136,0.1364,0.14,0.1409,0.1417,0,0,0,0,0,0,0.0903,0.0955,0.0991,0.1019,0.1056,0.1079,0.1086,0.1114,0.1154,0.1167,0.1185,0.1194,0.1254,0.1265,0.1238,0.1335,0.1305,0.1311,0.1329,0.1338,0.1345,0.1352,0.1224,0,0,0,0,0,0.0912,0.0945,0.0991,0.102,0.1033,0.1073,0.1089,0.1117,0.1149,0.1167,0.1203,0.1243,0.1278,0.1305,0.1336,0.1393,0.1392,0.1426,0.1433,0.1439,0.1452,0.1464,0.1473,0.138,0.138,0.138,0,0,0.0903,0.0941,0.0958,0.1016,0.1042,0.1074,0.1082,0.1117,0.1161,0.1171,0.1242,0.127,0.1298,0.1356,0.1385,0.1373,0.1468,0.1444,0.1449,0.1459,0.1469,0.1478,0.1486,0.1383,0.1382,0.1382,0,0,0.0894,0.094,0.0964,0.0997,0.1053,0.1082,0.1099,0.1152,0.119,0.1264,0.1279,0.1332,0.1396,0.1422,0.1441,0.151,0.15,0.1524,0.1573,0.1585,0.1592,0.1598,0.1615,0.1623,0.1533,0.1533,0.1533,0,0.0889,0.0937,0.0972,0.1003,0.1036,0.1088,0.1125,0.1168,0.1243,0.1283,0.1293,0.1409,0.1427,0.1498,0.152,0.1527,0.1531,0.1534,0.1592,0.1598,0.1604,0.162,0.1627,0.1535,0.1535,0.1535,0.1535,0,0.0898,0.0946,0.0953,0.1027,0.1065,0.1102,0.1167,0.1225,0.1285,0.1335,0.1435,0.148,0.1548,0.1564,0.1564,0.1627,0.1617,0.1591,0.1564,0.1615,0.1629,0.1637,0.1539,0.1538,0.1537,0.1537,0,0,0.0862,0.0949,0.0956,0.1,0.1089,0.1116,0.1196,0.1278,0.1337,0.1428,0.1493,0.1585,0.1624,0.165,0.1672,0.1691,0.1731,0.1666,0.1665,0.1673,0.1765,0.1685,0.1685,0.171,0.1712,0.1713,0.1761,0,0.0868,0.0936,0.0982,0.1049,0.1088,0.1163,0.1232,0.1318,0.1399,0.1467,0.1541,0.1621,0.1653,0.17,0.1726,0.1725,0.1752,0.1721,0.1724,0.1725,0.1638,0.1691,0.1717,0.1766,0.1767,0.1769,0.1769,0,0.0862,0.0917,0.0992,0.1085,0.1107,0.1162,0.1284,0.1355,0.146,0.1526,0.1626,0.1673,0.1757,0.1747,0.1824,0.1804,0.1798,0.1793,0.1794,0.1709,0.1657,0.1704,0.1782,0.1781,0.178,0.1779,0.1778,0,0.0815,0.0912,0.0982,0.1015,0.1131,0.1187,0.1258,0.1382,0.145,0.1573,0.1629,0.1734,0.1801,0.1821,0.1857,0.1838,0.1894,0.1856,0.1789,0.1783,0.182,0.1812,0.1889,0.1889,0.1889,0.1889,0.1889,0,0.0793,0.0833,0.0974,0.0998,0.1088,0.1182,0.1283,0.1368,0.1484,0.1556,0.1668,0.1741,0.1821,0.1866,0.1864,0.1867,0.1917,0.1813,0.1793,0.1838,0.1833,0.1825,0.1817,0.1891,0.189,0.189,0.189,0,0.0709,0.0806,0.0876,0.1014,0.1064,0.1131,0.1278,0.1341,0.1484,0.1573,0.1618,0.1757,0.1841,0.1898,0.193,0.1889,0.1879,0.186,0.1931,0.1911,0.1756,0.175,0.1784,0.1782,0.178,0.1778,0.1777,0,0.0678,0.0715,0.086,0.0921,0.0986,0.1105,0.1178,0.1327,0.1395,0.1579,0.1596,0.1732,0.1811,0.1808,0.1871,0.1881,0.1859,0.1847,0.1786,0.177,0.1748,0.1745,0.1741,0.1774,0.1773,0.1772,0.1772,0,0.0612,0.0671,0.0726,0.084,0.0935,0.1022,0.1137,0.1177,0.1348,0.1473,0.1559,0.1618,0.1701,0.1751,0.1787,0.1781,0.1846,0.1825,0.1828,0.1771,0.1758,0.1736,0.1736,0.1765,0.1766,0.1767,0.1767,0,0.0559,0.0586,0.067,0.0765,0.0865,0.0925,0.0997,0.1092,0.1179,0.1385,0.1407,0.1551,0.1676,0.17,0.1722,0.173,0.1699,0.1636,0.1648,0.1657,0.1595,0.1559,0.15,0,0,0,0,0,0.0512,0.0534,0.0597,0.0696,0.0775,0.0838,0.0963,0.1041,0.1203,0.1226,0.132,0.1395,0.1478,0.1552,0.1535,0.166,0.1694,0.1633,0.1622,0.1726,0.1734,0.1676,0,0,0,0,0,0,0.0486,0.0528,0.0561,0.0614,0.0664,0.0743,0.0821,0.0927,0.0958,0.1128,0.1176,0.1311,0.1402,0.1467,0.1506,0.1529,0.1495,0.1727,0.1724,0.1722,0.1729,0.1735,0.1678,0,0,0,0,0]},{"header":{"parameterUnit":"m.s-1","parameterCategory":2,"la1":30.2991,"la2":30.254,"lo1":-89.0895,"lo2":-89.0444,"dy":0.0017,"dx":0.0017,"nx":28,"ny":28,"refTime":"2025-05-27T09:00:00:Z","depth":"4","parameterNumber":3,"parameterNumberName":"V-component_of_CURRENTS"},"data":[0,0,0,0,0,0,0,0,0,0,0,0,0,0,0,0,0,0,0,0,0,0,0,0,0,0,0,0,0,0,0,0,0,0,0,0,0,0,0,0,0,0,0,0,0,0,0,0,0,0,0,0,0,0,0,0,0,0,0.0203,0.0203,0,0.0208,0.0208,0.0208,0.0205,0.0205,0.0205,0.0205,0.0145,0.0143,0.0142,0,0,0,0,0,0,0,0,0,0,0,0,0,0.0182,0.0182,0.0203,0.0203,0.0203,0.0208,0.0208,0.0208,0.0205,0.0205,0.0205,0.0205,0.0145,0.0144,0.0142,0,0,0,0,0,0,0,0,0,0,0,0,0,0.0189,0.0182,0.0203,0.0203,0.0203,0.0208,0.0208,0.0208,0.0205,0.0205,0.0205,0.0204,0.0146,0.0144,0.0142,0.013,0,0,0.0135,0.0134,0,0,0,0,0,0,0,0,0.0188,0.0189,0.0203,0.0203,0.0203,0.0206,0.0179,0.0179,0.0205,0.0203,0.0205,0.0204,0.016,0.0157,0.0158,0.0127,0.0125,0.0134,0.0133,0.0132,0.0132,0,0,0,0,0,0,0,0.0188,0.0189,0.0204,0.0203,0.0203,0.0199,0.02,0.0179,0.0181,0.0204,0.0203,0.0205,0.0159,0.016,0.0156,0.0124,0.0135,0.0133,0.0131,0.013,0.0087,0.0088,0,0,0,0,0,0,0.0189,0.0189,0.0204,0.0204,0.0196,0.02,0.0201,0.0205,0.0182,0.0179,0.0205,0.0205,0.0164,0.0159,0.0154,0.0144,0.0132,0.013,0.0129,0.0087,0.0087,0.0088,0,0,0,0,0,0,0.0189,0.0191,0.0204,0.0197,0.0198,0.02,0.0205,0.0205,0.0205,0.0184,0.018,0.0206,0.0164,0.0157,0.0146,0.0142,0.0129,0.0127,0.0087,0.0087,0.0088,0.0121,0,0,0,0,0,0,0.0188,0.0191,0.0197,0.0197,0.0199,0.0217,0.0205,0.0205,0.0207,0.0207,0.0183,0.0178,0.0163,0.0149,0.0143,0.0138,0.0125,0.0087,0.0087,0.0087,0.012,0.0123,0.0125,0,0,0,0,0,0.0187,0.0213,0.0197,0.0199,0.0207,0.0217,0.0218,0.0218,0.0207,0.0216,0.02,0.0179,0.0147,0.0148,0.0141,0.0135,0.0086,0.0087,0.0087,0.0119,0.0122,0.0125,0,0,0,0,0,0,0.0213,0.0215,0.0198,0.0222,0.0217,0.0217,0.0233,0.0219,0.0213,0.0211,0.0183,0.0178,0.0166,0.0147,0.0148,0.0124,0.0112,0.0111,0.0138,0.0141,0.0144,0.0116,0.0123,0,0,0,0,0,0.0217,0.0231,0.0224,0.0239,0.0243,0.0231,0.0235,0.0229,0.0223,0.0221,0.0202,0.0181,0.0163,0.015,0.0136,0.0121,0.0067,0.0112,0.0115,0.0117,0.0091,0.0005,-0.0003,0.0089,0.0089,0.0089,0,0,0.023,0.0231,0.0239,0.0244,0.0243,0.0253,0.0234,0.0245,0.0244,0.0213,0.0212,0.0191,0.0163,0.0153,0.0144,0.0135,0.007,0.0118,0.012,0.0092,0.0005,-0.0005,-0.0013,0.009,0.009,0.009,0,0,0.0264,0.0264,0.0285,0.0285,0.0284,0.0276,0.0277,0.0272,0.0266,0.0259,0.0234,0.0202,0.019,0.0156,0.0139,0.0142,0.0089,0.015,0.0135,0.0053,0.0044,0.0035,-0.0019,-0.0034,0.0147,0.0147,0.0147,0,0.0276,0.0291,0.0292,0.0309,0.0305,0.0286,0.0294,0.0294,0.028,0.0253,0.0266,0.0195,0.0183,0.0127,0.0142,0.0143,0.01,0.0128,0.0054,0.0044,0.0034,-0.002,-0.0036,0.0149,0.0149,0.0149,0.0149,0,0.0319,0.0327,0.0344,0.0347,0.0348,0.0356,0.0345,0.0335,0.0317,0.029,0.0237,0.021,0.0154,0.0158,0.0157,0.0083,0.0078,0.007,0.0042,0.0026,-0.0029,-0.0046,0.0151,0.0151,0.015,0.015,0,0,0.0343,0.0367,0.0368,0.0354,0.0361,0.0355,0.0359,0.0326,0.0294,0.0273,0.0216,0.0185,0.0141,0.0117,0.0095,0.0034,-0.0044,0.0032,0.0027,-0.0029,-0.021,-0.0147,-0.016,-0.0063,-0.0066,-0.0069,-0.0211,0,0.0362,0.0383,0.0395,0.0393,0.0388,0.0372,0.0368,0.0334,0.0302,0.0253,0.0188,0.014,0.0136,0.0106,0.0041,-0.0021,-0.0093,-0.0004,-0.0182,-0.0188,-0.0137,-0.018,-0.008,-0.0225,-0.0229,-0.0232,-0.0234,0,0.0378,0.0385,0.0392,0.037,0.0369,0.0372,0.0316,0.0312,0.0248,0.0219,0.0142,0.01,0.0009,0.0016,-0.0147,-0.0087,-0.0155,-0.0205,-0.0212,-0.0189,-0.0159,-0.0213,-0.0266,-0.0264,-0.0261,-0.0259,-0.0257,0,0.0342,0.0364,0.0356,0.0357,0.0352,0.0341,0.0334,0.0287,0.0274,0.0188,0.0163,0.0036,-0.0011,-0.0134,-0.0205,-0.0193,-0.0372,-0.0375,-0.0397,-0.0392,-0.0421,-0.0411,-0.0522,-0.0522,-0.0522,-0.0521,-0.0521,0,0.0322,0.0311,0.034,0.0332,0.032,0.0318,0.0295,0.0268,0.0236,0.0222,0.014,0.0104,-0.005,-0.0144,-0.0237,-0.0354,-0.0408,-0.0425,-0.0439,-0.0396,-0.0382,-0.0432,-0.042,-0.0527,-0.0526,-0.0525,-0.0524,0,0.0269,0.0286,0.0283,0.0298,0.0301,0.0291,0.0311,0.0304,0.0265,0.0248,0.0227,0.0133,0.0012,-0.0124,-0.0311,-0.0374,-0.0504,-0.0533,-0.046,-0.0464,-0.0471,-0.0455,-0.0615,-0.0615,-0.0614,-0.0614,-0.0613,0,0.0242,0.0241,0.0271,0.0291,0.0305,0.0308,0.0328,0.0313,0.0325,0.0283,0.0284,0.0167,0.0099,-0.0117,-0.0271,-0.0481,-0.0492,-0.0571,-0.0552,-0.049,-0.0488,-0.0473,-0.0458,-0.0612,-0.0612,-0.0612,-0.0612,0,0.0218,0.0239,0.0258,0.0299,0.0328,0.0352,0.0383,0.0393,0.0393,0.0359,0.0334,0.0222,0.0093,-0.0087,-0.0238,-0.0383,-0.0533,-0.0566,-0.0569,-0.0552,-0.0488,-0.0483,-0.047,-0.061,-0.061,-0.061,-0.061,0,0.0231,0.0244,0.0293,0.0319,0.0364,0.0402,0.0406,0.044,0.044,0.0412,0.0406,0.0267,0.0172,-0.0035,-0.0171,-0.031,-0.0358,-0.0407,-0.0419,-0.0423,-0.031,-0.0196,-0.0265,0,0,0,0,0,0.0247,0.0272,0.0315,0.0351,0.04,0.0412,0.0458,0.0466,0.0467,0.0469,0.0442,0.0335,0.0131,0.003,-0.01,-0.0186,-0.0399,-0.0345,-0.0464,-0.0598,-0.0601,-0.0493,0,0,0,0,0,0,0.0269,0.0311,0.032,0.0383,0.0407,0.0454,0.0481,0.0482,0.0481,0.0467,0.0363,0.0303,0.0098,0.0206,-0.0104,-0.015,-0.0242,-0.0449,-0.0452,-0.0597,-0.0599,-0.0601,-0.0491,0,0,0,0,0]}]]